Theta_e
303 304 303 304 304 304 304 306 303 303 304 294 291 292 289 287 288 301 306 309 305 297 288 290 289 286 288 292 291 292 291 290 292 291 292 290 291 289 287 289 286 286 286 286 285 287 284 285 286 285 286 286 287 287 287 289 291 293 287 287 285 290 280 280 279 279 281 283 284 285 284 287 287 285 281 283 284 283 280 274 274 278 272 273 269 268 275
302 303 303 303 303 304 304 305 305 304 302 293 291 289 286 288 292 297 304 308 304 294 284 284 285 289 292 291 291 293 293 292 290 290 292 290 291 289 288 289 290 286 285 285 286 287 283 285 286 285 285 287 288 287 287 291 290 292 288 290 290 284 282 284 273 273 277 280 284 284 285 286 282 282 282 283 281 279 278 275 273 273 275 276 275 273 270
301 302 302 303 303 304 304 304 305 304 305 297 292 287 287 287 291 293 297 304 302 290 292 288 286 287 289 290 289 290 292 295 294 293 292 293 290 290 289 291 289 289 288 287 286 286 285 281 285 285 283 287 288 289 286 289 290 290 290 294 292 286 282 282 276 276 274 273 275 279 282 283 282 280 281 282 284 280 281 278 275 273 273 278 272 273 275
301 301 302 302 303 303 303 304 304 304 304 303 292 289 286 285 284 289 294 298 297 296 295 293 289 288 289 288 289 291 289 293 295 296 294 295 293 293 292 291 291 289 289 286 285 285 285 284 283 285 285 285 287 287 286 287 290 291 294 291 291 281 281 283 284 282 280 282 281 283 285 282 283 282 283 283 284 284 283 278 275 279 276 276 279 280 280
300 301 301 302 302 303 303 303 304 304 304 303 291 288 287 284 282 285 286 293 293 291 294 291 292 288 292 286 289 288 290 291 293 297 292 295 294 292 292 292 290 289 288 286 286 286 286 284 284 284 284 284 286 286 286 288 290 294 291 291 286 279 282 283 283 283 284 280 280 282 287 284 285 283 283 284 284 283 283 282 282 282 276 276 281 280 280
300 300 300 301 301 302 303 303 304 304 304 303 292 286 286 280 283 286 289 288 286 287 288 292 291 291 292 289 292 289 288 290 288 293 295 295 296 292 291 292 291 291 290 288 285 286 285 285 284 284 283 285 287 287 288 288 290 291 290 290 288 282 281 281 282 282 282 280 280 281 284 285 285 285 284 283 284 283 282 284 286 282 281 281 282 281 282
300 300 300 300 301 301 302 303 303 304 303 299 290 285 285 285 284 284 288 285 283 287 291 292 291 290 291 289 290 288 289 288 291 291 290 292 292 294 287 289 291 290 290 290 286 287 284 284 284 282 282 284 284 284 287 288 285 289 287 288 283 286 278 281 282 282 282 281 281 281 284 283 283 283 284 285 284 284 285 286 287 285 284 286 282 283 284
299 299 299 300 300 300 301 302 302 303 302 296 287 285 283 282 282 282 284 284 283 284 291 291 291 288 291 288 288 290 289 289 291 291 292 288 290 294 290 291 290 291 291 290 286 288 289 287 286 285 287 284 284 285 283 285 287 287 286 287 287 286 280 286 281 278 279 281 281 281 282 283 282 281 283 283 284 285 285 286 286 285 284 284 283 280 282
298 299 299 299 300 300 300 301 302 302 302 292 288 285 284 285 284 286 283 282 282 286 289 289 289 287 288 287 289 289 290 289 292 290 293 293 290 291 291 292 291 292 292 291 291 292 290 289 290 290 290 288 289 288 287 288 287 286 286 287 288 286 279 282 280 278 275 279 281 280 281 281 280 281 281 282 282 282 284 283 285 283 283 285 283 283 284
298 298 298 298 299 300 300 300 301 301 303 294 290 285 286 285 287 284 282 279 285 284 284 289 288 284 289 289 287 288 287 288 292 289 291 293 294 295 294 293 293 290 291 291 293 294 293 294 294 294 294 294 292 293 292 291 289 286 285 286 285 284 283 281 278 278 275 279 280 280 279 279 277 280 283 284 284 285 286 286 284 287 288 285 282 284 290
297 298 298 298 299 299 299 300 300 302 300 294 291 286 286 286 285 284 281 276 277 281 285 287 286 286 287 288 285 285 285 287 291 289 286 291 291 293 296 294 292 288 290 294 297 297 296 295 294 294 294 294 293 293 293 293 292 289 288 286 285 285 284 280 282 278 276 276 279 280 279 274 277 288 289 287 285 285 284 284 286 287 288 287 290 289 286
298 298 298 298 298 299 299 299 300 300 301 298 298 291 289 286 284 282 279 276 276 279 283 282 286 283 284 286 287 285 285 285 286 286 287 286 288 291 294 294 294 288 292 296 296 296 297 297 296 295 293 291 292 293 293 292 291 292 292 288 285 285 284 283 282 279 276 275 279 279 276 278 286 285 288 290 289 288 287 288 288 288 288 288 287 287 286
298 298 298 298 298 298 299 299 300 299 301 298 297 292 292 290 288 283 281 276 271 276 277 276 279 282 282 284 285 284 284 284 284 286 285 287 287 289 291 291 292 291 295 296 297 296 291 286 286 287 287 289 289 290 291 291 291 291 291 292 289 285 285 284 283 283 283 279 280 276 278 285 284 285 287 287 289 286 286 285 286 286 287 288 288 290 291
297 297 298 298 298 298 299 299 299 299 300 300 295 295 295 293 287 283 281 276 277 277 279 278 279 280 280 281 283 283 284 285 284 285 286 285 286 286 287 289 291 291 295 297 292 291 286 286 285 285 285 286 286 286 287 290 290 290 290 291 292 290 287 286 283 286 281 282 282 282 286 285 286 286 286 288 285 285 285 283 287 290 289 289 289 290 290
297 297 297 298 298 298 298 298 299 299 299 301 296 295 296 295 293 287 283 281 275 277 278 277 278 280 281 279 281 281 280 281 283 282 281 284 285 285 288 289 287 291 293 292 285 284 284 286 282 282 282 282 278 281 287 285 287 287 290 291 291 292 288 287 285 283 286 283 280 281 281 279 285 287 285 288 289 291 290 288 287 290 290 291 290 290 290
297 297 297 297 298 298 298 298 299 299 299 300 296 294 296 297 296 294 288 284 279 275 278 282 281 281 281 277 280 282 279 280 279 280 276 278 280 284 286 285 285 290 289 285 283 283 280 282 281 283 280 281 283 282 278 283 284 286 286 288 289 288 290 287 287 284 284 283 280 280 279 282 287 286 287 288 287 291 289 288 285 290 288 290 290 290 290
296 297 297 297 297 297 298 298 298 299 299 299 292 293 293 297 295 293 289 287 284 280 284 284 282 280 278 277 279 279 280 278 279 276 274 277 280 279 281 283 286 289 288 288 284 283 280 278 279 280 278 279 280 279 280 279 281 281 285 286 287 286 286 286 284 283 284 283 282 279 283 282 286 284 284 285 287 292 290 280 281 289 286 288 289 290 290
296 296 297 297 297 297 297 298 298 298 298 299 295 291 291 297 297 295 291 286 283 284 284 286 283 279 279 278 278 280 281 278 277 275 273 275 278 283 280 281 283 287 287 284 282 282 281 280 281 279 280 280 281 281 278 280 279 280 281 283 283 284 284 285 282 284 284 285 282 283 283 285 283 283 282 283 287 291 282 279 284 284 285 285 287 287 285
296 296 296 296 297 298 298 298 298 298 298 298 294 291 292 296 297 296 292 286 285 281 287 288 287 283 283 281 280 282 282 285 281 279 273 277 277 281 280 282 286 286 287 283 280 279 282 279 278 276 276 276 277 280 281 279 276 281 284 282 282 284 285 284 285 283 282 283 281 282 283 285 284 283 284 284 288 280 279 285 280 282 282 280 283 283 282
295 295 296 296 296 297 298 298 298 298 298 298 296 288 290 296 297 296 291 284 286 284 288 286 287 284 284 284 281 280 281 282 281 280 276 274 277 282 282 280 284 284 282 282 281 275 279 278 280 273 276 276 278 279 273 271 278 280 283 286 284 284 283 281 282 285 285 283 281 281 277 286 287 287 285 285 283 282 283 282 281 281 282 282 282 283 282
295 295 295 296 296 296 297 298 298 298 297 297 297 289 288 292 296 297 296 291 285 283 285 291 290 289 287 285 286 286 285 283 282 281 279 277 281 283 275 274 283 283 282 285 281 280 276 275 271 272 275 281 280 278 272 277 275 277 284 285 284 288 284 283 285 287 281 281 279 280 287 286 287 291 286 286 286 285 285 287 283 282 281 282 283 283 282
295 295 295 295 295 296 296 297 297 297 298 298 297 289 286 288 293 296 296 295 288 284 286 289 288 288 290 290 288 286 287 287 287 288 284 279 280 284 277 276 276 279 280 276 276 275 274 272 272 271 274 272 274 279 273 278 271 273 276 280 278 284 285 286 284 287 285 283 285 286 284 285 286 285 286 283 284 284 285 285 287 285 283 280 284 284 281
295 295 295 295 295 295 296 296 296 297 298 298 296 288 286 287 288 294 294 289 291 291 292 289 290 290 292 292 290 289 286 287 287 286 285 283 279 282 282 279 279 282 281 282 283 278 276 275 273 275 273 273 277 274 270 270 273 274 278 281 281 278 282 281 283 284 282 283 283 283 283 283 283 282 282 282 282 282 283 286 287 284 283 282 284 282 282
294 294 294 295 295 295 295 296 296 297 297 297 296 288 287 287 289 290 288 290 286 283 286 288 286 283 285 285 290 288 288 287 287 286 286 290 281 277 281 282 283 279 276 279 281 285 278 274 277 273 274 275 276 272 276 271 272 272 276 277 279 280 280 282 280 279 284 279 283 282 282 280 281 281 280 280 280 280 281 283 284 283 282 282 282 283 283
294 294 294 294 294 294 294 295 295 296 297 297 296 293 291 287 289 291 287 281 282 281 276 282 284 288 291 291 291 289 290 291 290 289 289 289 287 283 281 284 284 285 283 281 280 280 277 278 276 271 274 277 281 275 274 276 275 277 273 275 276 280 282 283 279 280 282 277 279 279 278 278 279 280 281 281 280 281 280 281 281 281 280 281 281 281 280
294 294 294 294 294 294 294 294 295 295 296 297 295 287 287 287 290 291 288 286 282 283 278 276 281 288 288 289 288 289 288 290 290 289 289 289 288 287 285 285 283 283 281 281 280 284 273 272 268 269 277 280 281 273 268 276 273 275 277 278 281 279 283 274 279 281 279 280 281 280 281 281 283 281 280 280 280 280 280 280 280 281 280 279 279 279 279
294 294 294 294 294 295 295 295 295 296 297 297 294 289 288 287 291 290 286 284 280 276 279 276 279 280 284 285 288 289 289 289 288 287 287 287 287 287 286 284 284 281 283 280 277 276 270 270 274 277 275 279 280 273 272 275 273 274 272 276 278 281 279 278 279 273 274 278 281 281 280 276 282 282 281 278 279 279 279 278 278 279 279 279 278 277 276
293 293 294 294 294 294 295 295 295 295 296 296 294 288 288 287 289 292 291 289 284 274 274 276 274 277 282 280 286 289 289 291 289 288 287 286 285 287 286 285 283 281 278 281 278 277 274 277 274 272 270 268 277 276 280 278 277 271 271 276 280 282 281 280 278 279 278 282 283 285 283 282 282 285 279 278 279 280 279 278 276 275 276 277 278 276 275
293 293 293 293 294 294 295 295 295 294 294 294 285 284 284 288 289 292 292 292 288 279 270 273 276 275 272 279 285 284 286 289 289 289 288 286 285 285 286 285 284 283 282 279 280 278 274 278 280 275 273 278 279 271 274 271 272 278 280 280 279 279 281 284 284 283 280 281 285 283 281 283 279 278 278 278 278 278 276 275 274 274 274 274 275 275 275
293 293 293 293 294 294 294 294 295 295 295 287 283 282 280 282 289 290 293 292 287 282 275 272 270 271 277 276 276 282 283 286 287 288 287 287 286 285 285 284 283 286 284 282 281 280 277 277 275 277 276 281 278 272 274 266 270 277 279 278 280 279 278 280 282 283 282 279 281 278 277 277 277 276 275 274 275 276 274 272 272 272 272 273 272 271 271
293 293 293 293 294 294 294 294 294 295 294 285 284 277 277 274 282 291 294 291 289 284 274 277 272 275 270 274 281 282 283 285 283 285 286 286 287 286 286 285 281 286 282 278 279 280 279 274 276 278 277 280 280 274 271 269 266 266 277 279 280 280 280 279 274 276 278 277 275 274 274 275 274 275 274 272 272 272 271 270 270 271 271 270 269 269 268
293 293 292 293 293 294 294 294 294 294 289 285 283 280 279 281 284 289 294 291 287 284 279 275 276 272 269 275 275 281 283 283 283 283 284 287 283 284 283 286 282 284 285 283 280 277 277 277 281 278 279 284 280 265 270 270 270 271 276 279 279 278 277 275 276 276 276 278 278 276 275 274 275 278 278 272 270 270 270 269 268 269 269 267 267 266 265
293 293 293 293 293 294 294 293 294 293 285 288 293 294 293 293 294 294 295 291 286 282 283 277 271 275 271 268 270 273 279 280 281 284 280 282 281 282 278 282 284 284 288 285 275 275 275 281 277 279 280 281 276 271 270 276 278 279 279 280 278 277 274 272 274 276 277 272 273 281 276 277 277 271 270 268 268 267 267 266 267 267 266 265 264 264 263
293 293 293 293 293 294 293 293 294 294 292 285 279 284 287 292 295 295 292 290 285 284 279 275 274 271 267 273 266 271 283 278 276 282 277 284 281 283 279 281 279 282 281 282 282 281 274 276 277 276 277 271 270 272 271 274 277 280 282 276 274 272 271 272 274 274 270 268 268 270 276 274 270 267 267 265 264 265 265 265 265 264 262 263 263 263 262
293 293 293 293 293 293 292 291 287 286 281 283 284 284 288 292 293 295 292 286 280 278 276 275 276 270 268 263 265 269 276 277 273 279 276 280 284 281 281 279 278 278 278 284 278 278 279 278 279 276 275 271 273 273 271 277 279 280 277 271 269 270 271 272 271 267 266 267 268 270 269 269 269 268 267 264 263 263 263 262 262 264 264 262 262 261 260
293 293 293 292 292 291 288 288 283 281 279 281 281 290 293 292 292 292 290 286 281 279 277 275 276 269 269 267 264 267 282 274 276 276 276 278 277 280 278 278 276 280 285 282 277 279 277 282 280 275 276 274 273 278 279 281 281 281 275 275 273 275 277 278 274 264 262 265 266 269 269 269 271 269 266 263 262 262 262 262 261 261 263 262 261 260 259
293 292 292 291 288 284 280 280 285 284 281 285 289 294 294 290 286 287 286 284 283 283 276 275 273 272 274 268 266 267 279 271 279 276 277 275 275 281 279 278 275 282 278 275 278 278 280 284 278 277 277 276 278 282 282 283 283 280 275 277 275 271 272 271 267 266 266 264 263 265 265 265 265 265 264 262 261 261 261 261 261 261 261 261 259 257 256
293 292 285 282 279 275 274 280 280 283 293 292 291 282 280 284 277 279 281 279 281 282 274 274 272 273 272 269 268 275 277 271 280 274 276 278 277 273 278 278 277 281 270 276 278 284 278 275 275 276 277 281 281 282 281 281 280 280 278 276 273 271 270 267 268 270 269 265 264 262 260 262 262 263 264 262 260 260 261 260 257 257 258 258 257 257 256
289 285 282 282 278 274 275 275 287 293 288 286 284 277 275 278 277 273 271 276 279 274 278 277 272 275 272 272 269 279 275 273 273 275 273 279 276 271 279 272 279 280 273 276 276 285 274 273 275 276 275 278 279 279 273 270 268 269 274 276 275 270 269 268 272 274 273 275 275 270 270 270 268 265 263 261 259 259 257 256 256 256 255 255 255 254 254
283 279 277 277 276 278 282 286 294 288 284 276 278 277 270 275 274 269 278 270 268 273 276 270 278 274 275 272 272 271 277 274 270 270 273 274 281 270 274 274 276 276 270 273 275 284 275 272 274 274 274 278 278 278 270 266 268 264 264 270 271 269 269 270 269 260 264 259 264 268 262 262 269 270 264 261 260 258 256 255 255 255 254 254 254 254 252
280 278 278 276 277 276 280 283 280 278 278 274 271 272 268 264 268 271 273 269 269 268 274 274 275 271 273 272 273 271 274 276 270 271 273 271 278 276 271 270 280 271 269 272 277 278 273 273 273 273 274 280 279 278 268 265 264 260 258 261 265 266 266 264 260 258 260 260 259 257 255 255 261 264 264 262 260 258 256 254 253 252 252 252 253 253 255
283 281 279 282 280 278 277 274 273 270 271 272 270 265 268 268 267 263 266 268 269 270 266 269 268 273 272 276 274 276 268 271 272 273 271 268 276 274 272 270 266 267 268 274 275 264 268 271 273 273 277 279 281 275 266 267 263 260 258 258 260 260 261 260 257 254 257 258 256 254 254 255 255 257 258 257 256 254 253 252 251 251 251 251 252 251 252
290 287 284 269 270 272 274 272 273 271 266 266 266 262 266 262 264 266 265 267 263 267 268 270 268 278 274 273 268 269 272 278 273 271 269 268 275 269 266 267 268 264 268 271 267 264 265 265 270 275 280 281 281 270 267 269 264 260 258 257 257 257 259 258 257 254 253 254 254 253 252 252 252 251 251 252 251 250 249 250 250 250 249 249 249 250 251
284 282 273 269 271 271 275 266 274 268 265 264 266 263 264 261 260 262 262 265 263 266 268 271 269 274 270 274 273 272 270 273 278 267 267 270 266 264 269 265 267 272 269 261 265 265 266 268 272 277 276 266 262 264 266 262 258 257 255 254 254 255 254 253 253 253 252 252 252 251 251 251 250 249 249 250 251 251 250 249 249 249 249 249 248 249 249
277 274 272 267 267 271 270 264 270 267 265 264 269 265 265 263 264 262 266 267 269 270 270 271 273 273 271 270 271 271 276 269 275 267 264 268 264 268 264 263 267 265 263 264 266 265 263 264 267 263 260 261 262 260 258 259 258 259 257 253 253 254 254 255 254 254 253 252 251 251 251 251 250 250 249 249 248 249 250 249 249 250 249 248 248 248 248
275 272 272 268 266 268 267 265 265 261 265 267 264 264 267 268 267 267 267 266 271 270 272 273 274 274 272 270 273 272 272 269 268 269 270 266 265 264 266 266 265 264 264 265 262 265 269 272 273 272 268 265 262 259 257 257 256 255 255 255 254 253 253 253 253 253 252 251 251 251 251 251 251 250 249 248 248 247 247 248 249 248 248 249 249 250 249
273 271 271 270 267 265 264 263 262 263 264 263 265 268 270 272 272 273 267 265 273 274 276 276 276 275 273 268 267 265 264 268 267 269 269 264 264 267 269 265 263 265 265 264 265 266 265 270 270 268 264 261 259 257 256 256 255 255 257 255 253 253 252 252 252 252 251 251 251 251 250 250 250 250 249 247 247 245 247 247 248 249 248 247 248 250 249
272 271 268 264 263 264 262 264 259 255 253 260 259 258 258 263 269 267 266 261 264 271 273 272 268 267 267 266 267 269 266 265 268 266 267 267 267 261 262 265 264 264 263 267 268 268 267 268 271 268 263 261 259 256 255 255 254 255 255 253 253 252 252 252 251 251 251 250 251 250 250 250 249 249 248 248 247 246 245 245 246 246 246 246 245 246 246
270 269 269 265 261 260 258 255 261 268 262 253 254 257 260 267 271 269 259 255 265 274 276 274 270 271 264 270 268 268 267 265 267 267 267 263 263 263 264 260 264 263 264 265 268 268 274 269 258 257 257 257 256 256 256 255 255 255 254 253 253 253 252 252 252 251 251 251 250 250 249 249 249 248 247 248 248 248 247 244 245 245 245 246 246 246 246
265 261 257 256 256 257 255 255 259 262 257 254 257 258 256 261 264 258 257 261 259 263 274 276 276 272 267 268 263 267 265 265 266 268 265 266 263 263 264 261 263 266 267 261 260 266 259 249 254 257 256 256 255 255 254 254 254 254 253 253 253 252 252 251 250 250 250 250 250 249 248 248 248 249 249 249 249 248 246 245 244 244 243 244 244 245 246
259 257 252 248 256 259 258 262 264 264 262 261 259 254 252 259 259 258 255 254 257 270 273 270 270 266 262 263 266 264 265 266 265 262 263 265 264 261 264 266 267 265 268 267 260 252 249 251 253 255 255 255 255 254 253 253 253 252 252 252 251 251 251 251 250 250 249 249 249 249 248 248 249 249 249 249 249 249 248 248 244 243 243 244 244 243 244
258 257 254 252 250 247 250 252 252 252 253 251 249 251 254 255 255 254 256 254 259 270 271 268 266 264 262 261 265 266 265 264 262 262 262 261 261 261 259 266 271 268 264 256 251 249 249 248 250 254 255 255 253 253 253 252 251 251 251 251 251 250 250 250 250 249 249 248 248 247 247 247 248 249 249 249 249 248 247 245 245 244 244 243 243 243 243
Wind_Speed
7 7 5 4 2 3 3 6 5 1 6 2 0 1 2 3 2 1 5 1 0 6 3 4 1 1 1 2 1 1 1 2 2 1 1 1 1 2 2 2 3 1 2 1 4 10 5 9 9 4 5 1 6 4 7 9 9 7 1 4 3 5 4 4 1 2 3 2 1 2 1 1 0 3 1 6 9 7 7 3 6 8 2 1 1 1 7
7 7 7 6 5 2 3 4 6 4 5 2 1 4 3 2 2 2 1 1 1 6 6 7 7 2 1 3 1 2 1 1 1 0 0 2 0 2 1 1 1 3 1 3 7 5 4 3 4 2 2 3 1 3 8 12 7 10 9 11 7 4 3 8 2 2 4 3 2 2 2 0 4 4 4 3 3 5 3 5 1 1 8 8 8 9 3
6 6 7 7 5 5 4 3 5 3 4 2 1 2 3 3 1 1 1 1 2 9 2 3 5 4 6 4 5 4 0 3 2 2 1 1 2 2 0 0 2 2 1 2 2 3 2 2 3 2 1 2 1 4 6 7 6 2 1 3 8 4 4 8 8 10 10 7 7 13 14 12 2 0 2 4 8 7 5 3 1 3 3 7 4 6 6
4 6 7 7 6 6 6 5 3 3 3 3 4 1 2 0 4 1 1 2 2 1 1 4 5 7 6 5 3 3 4 1 3 3 0 1 1 2 2 1 2 2 2 2 2 6 1 2 2 6 3 1 1 2 4 7 4 3 5 7 9 3 1 5 9 14 15 14 3 2 10 5 7 4 8 4 5 7 4 5 4 11 4 7 8 5 2
4 4 5 6 7 6 5 6 5 3 3 4 3 2 1 1 3 3 4 3 0 1 2 5 7 7 8 6 5 9 9 1 1 2 1 2 2 1 1 2 3 1 4 3 3 2 3 1 3 4 5 1 1 4 3 2 4 4 4 6 6 3 3 7 8 9 8 3 3 5 7 8 7 8 8 9 9 9 9 10 14 6 8 8 10 5 6
5 4 3 5 6 6 5 5 7 4 2 5 3 2 3 2 1 2 2 1 4 5 3 4 7 3 9 4 6 11 10 5 6 2 0 1 1 3 2 1 3 6 6 4 4 3 3 2 3 1 0 3 0 2 2 2 4 1 1 1 3 5 7 4 4 7 4 2 2 5 4 7 9 12 12 11 11 10 13 15 15 8 10 17 5 11 8
5 5 4 4 5 5 5 4 3 6 2 5 3 3 2 1 0 1 2 1 1 1 2 8 4 7 11 1 6 8 13 14 8 3 2 2 1 4 5 5 6 4 3 4 3 5 5 6 1 3 3 4 3 2 2 0 4 2 1 1 1 3 4 4 5 7 5 3 3 4 8 4 2 7 11 14 14 16 18 18 17 14 12 14 5 13 16
4 4 4 4 4 4 4 4 2 4 3 4 3 1 2 1 1 0 2 4 3 1 3 4 5 5 4 4 6 7 12 12 4 0 5 5 6 3 7 6 5 5 5 3 4 6 3 2 6 4 6 0 1 4 3 4 1 1 4 3 2 4 4 7 4 4 5 4 1 2 6 6 6 4 7 9 12 15 18 17 16 10 11 9 2 3 11
4 4 4 5 4 4 4 2 2 1 2 3 1 1 1 0 1 0 4 3 0 1 3 5 5 2 1 4 2 3 8 10 8 2 2 7 7 6 16 5 4 2 3 4 8 4 4 3 2 6 3 7 5 4 3 5 6 4 2 1 1 3 3 2 3 5 4 1 6 4 1 1 3 5 6 10 12 12 11 11 7 6 10 13 9 9 14
5 4 4 5 5 4 4 4 1 1 2 2 1 0 0 1 1 1 1 2 1 3 0 3 4 7 5 2 1 1 3 3 5 1 2 2 2 6 6 7 7 3 4 11 14 4 6 5 5 7 5 5 3 2 3 5 7 5 4 0 5 4 5 4 3 4 4 1 4 6 5 2 3 9 13 19 15 12 8 7 5 11 14 12 9 15 15
7 6 6 5 5 5 5 4 3 4 2 2 2 1 2 1 1 2 3 2 2 2 4 4 9 1 3 3 1 4 1 3 5 9 1 0 2 1 6 8 7 2 11 8 2 8 6 5 4 3 5 4 3 3 3 4 3 2 6 3 1 3 5 3 2 4 1 1 5 4 6 8 12 10 11 13 15 15 11 8 14 15 10 10 13 10 1
9 8 7 6 5 6 6 5 5 4 6 1 1 2 3 3 4 3 2 3 1 1 4 4 5 1 3 3 4 2 3 3 3 2 1 0 1 1 6 7 8 6 1 8 10 10 8 5 8 8 8 7 6 3 5 2 1 1 2 5 3 5 3 4 2 3 3 1 3 5 10 13 4 2 6 16 16 12 17 19 16 11 10 10 9 8 5
10 10 10 8 7 7 7 7 6 2 6 1 1 2 2 2 3 2 3 3 2 3 4 2 1 3 2 1 4 1 3 1 2 2 2 1 1 1 1 3 7 1 6 11 13 10 6 4 5 4 3 3 3 4 2 0 1 0 1 2 6 4 6 3 1 3 4 3 4 6 10 3 1 3 1 2 5 4 5 8 8 5 10 12 15 16 11
9 10 10 10 9 8 7 8 6 6 5 5 2 2 1 1 2 2 1 3 2 2 2 0 0 4 2 1 3 2 1 1 0 1 0 1 1 1 2 1 1 2 3 10 7 9 5 2 3 2 1 2 1 1 4 4 3 3 3 4 2 7 3 3 2 3 7 6 10 11 4 6 1 3 3 8 9 8 12 11 13 14 12 13 14 16 11
9 9 10 11 11 10 9 8 8 7 5 9 2 1 1 1 1 2 2 3 2 1 3 6 4 5 6 2 4 4 2 3 3 4 1 1 0 1 0 1 2 0 1 4 2 2 3 3 3 4 2 6 5 5 2 4 1 1 4 5 4 7 9 3 7 5 6 8 7 3 5 13 12 7 1 1 4 10 9 8 10 4 9 13 13 12 10
9 10 10 11 11 11 11 10 9 8 8 7 4 2 1 1 1 2 2 4 3 3 6 5 7 5 6 3 4 8 6 5 4 0 1 1 2 2 1 2 3 0 2 3 2 5 3 4 4 7 6 6 1 5 3 2 2 1 1 3 3 1 3 4 9 2 6 7 7 7 9 10 6 4 5 6 5 9 5 4 12 6 9 10 12 12 9
9 10 11 11 11 12 12 12 11 10 9 7 3 2 3 4 3 2 1 1 2 6 2 10 6 5 4 1 1 1 1 3 5 3 3 3 1 2 3 3 1 3 1 2 2 2 2 2 1 1 1 3 4 5 3 2 4 1 1 3 7 7 6 7 9 8 5 6 7 8 3 4 1 3 2 3 5 8 7 7 8 5 4 8 9 13 12
9 10 10 11 11 12 13 13 12 12 11 10 5 3 2 3 5 4 1 2 3 6 4 7 5 3 5 5 3 1 3 2 3 2 2 2 1 1 2 2 2 2 1 2 1 4 4 4 8 5 7 2 1 3 6 6 6 7 8 10 6 6 3 8 12 9 9 11 5 2 5 4 3 3 2 4 4 9 9 14 4 3 7 4 6 7 5
10 10 11 12 11 11 12 13 13 13 12 11 3 1 2 3 5 3 1 2 3 4 4 6 6 6 3 3 3 4 3 6 6 3 1 1 3 5 5 1 2 2 0 5 1 3 6 4 0 2 4 2 0 7 3 6 6 2 8 7 2 5 4 2 6 9 9 7 9 7 2 4 4 1 6 5 7 7 11 5 1 4 6 3 4 7 5
11 11 11 11 12 12 12 13 14 14 14 14 6 3 1 4 5 8 6 3 1 3 1 3 4 8 3 6 5 2 1 1 1 5 4 3 1 3 2 2 2 2 1 1 5 2 4 6 6 1 3 5 4 3 1 3 1 8 5 9 9 10 7 6 8 4 3 3 6 4 10 3 8 9 3 1 4 6 4 3 3 1 4 7 3 6 6
12 12 12 12 12 13 13 13 14 14 15 16 9 4 1 1 5 5 5 3 0 3 4 4 2 3 3 4 7 8 7 8 5 3 5 3 4 4 5 4 6 4 4 5 7 5 3 2 2 2 3 5 5 3 4 4 2 6 4 7 4 6 7 3 6 7 7 10 10 7 4 5 8 11 9 7 7 3 6 7 4 2 3 4 7 2 5
13 12 13 13 13 13 14 13 14 15 15 16 10 5 4 3 3 5 4 4 5 4 0 1 1 2 2 2 3 3 5 5 6 4 6 3 2 5 4 2 2 3 2 3 2 1 2 2 1 2 3 2 1 7 4 8 6 2 2 1 2 5 8 5 9 6 8 6 5 2 1 3 2 3 1 1 0 0 3 5 6 9 3 2 6 7 4
13 13 13 14 14 14 14 14 14 15 17 17 11 4 7 3 2 3 5 6 3 3 0 2 2 4 4 5 3 3 3 1 1 1 1 4 2 2 2 2 3 1 0 1 5 5 4 5 4 3 0 1 7 4 1 2 2 4 7 5 2 3 2 1 3 3 1 1 2 0 2 1 1 2 1 1 1 1 3 8 9 1 4 5 8 6 6
14 13 14 14 14 15 15 14 15 15 17 18 12 6 4 4 6 4 2 4 3 2 2 5 3 6 7 11 7 2 1 1 3 3 1 0 3 2 1 1 1 2 1 2 1 3 3 2 3 2 2 5 4 2 7 5 5 4 2 1 1 2 1 1 2 2 5 6 1 3 2 1 1 2 3 4 3 2 2 5 6 7 6 5 4 7 6
15 14 14 15 15 15 16 15 15 15 16 18 13 5 4 3 4 8 7 5 3 6 6 3 10 10 6 3 3 5 5 4 1 1 0 0 4 5 5 3 3 3 3 1 1 5 2 2 2 1 4 6 7 6 2 5 7 4 4 5 1 3 3 2 1 2 7 4 1 1 1 1 0 1 4 4 4 6 6 5 6 7 5 6 5 6 8
15 15 14 15 15 16 16 16 17 16 16 17 14 6 6 6 5 6 5 1 2 2 5 8 6 1 2 3 3 4 2 3 5 5 5 5 4 4 3 1 1 3 3 2 1 2 1 1 2 2 4 6 3 3 3 6 3 1 5 8 7 3 6 3 5 5 0 3 1 0 5 3 0 1 1 2 5 8 7 6 7 7 9 8 8 7 5
16 15 15 15 16 16 16 16 16 16 16 15 11 6 8 4 7 11 9 7 5 4 4 6 2 1 1 5 2 1 1 4 5 5 4 4 5 1 2 2 1 1 2 1 3 3 3 2 1 4 3 5 2 3 1 1 2 3 3 3 1 4 7 2 4 3 3 8 7 8 6 3 6 5 5 4 3 7 9 6 8 6 8 7 10 8 7
17 16 16 16 17 17 17 17 17 17 16 14 9 4 6 7 9 11 8 9 11 4 3 2 2 5 1 1 3 4 4 5 5 5 5 6 5 4 5 5 4 3 2 3 4 0 1 4 7 2 0 3 1 3 3 1 3 4 1 5 6 7 7 7 7 8 7 8 7 11 4 2 3 10 6 4 4 7 10 7 8 5 4 4 10 9 6
18 18 17 17 17 17 17 17 17 17 16 12 5 5 1 4 4 7 9 10 9 5 2 1 2 4 1 5 2 1 2 5 4 5 5 5 5 6 8 7 7 4 2 2 2 2 3 4 3 5 3 6 3 4 1 2 3 8 6 6 5 5 4 10 11 6 2 3 10 10 5 8 6 8 6 4 3 7 9 6 6 6 5 5 6 4 8
18 19 18 18 17 17 18 18 16 16 14 2 6 2 1 3 6 8 9 8 8 4 4 3 2 5 1 3 1 4 2 4 5 5 6 5 5 6 6 6 4 5 3 4 5 8 4 3 2 2 3 1 3 3 4 2 4 7 4 4 5 2 1 4 2 7 5 2 4 3 4 8 7 9 5 3 2 5 11 8 6 7 5 4 8 7 4
18 19 19 18 18 17 18 18 17 17 12 3 4 4 5 6 6 10 13 9 9 7 3 2 4 1 4 3 1 4 4 4 4 5 6 7 7 6 4 4 2 6 7 2 4 7 4 5 3 4 0 2 3 3 5 4 3 3 6 7 8 9 7 5 1 1 6 8 8 7 6 8 7 8 5 2 3 5 7 4 4 5 6 7 7 7 6
18 18 19 20 19 18 18 20 19 15 6 8 9 6 4 4 2 12 14 7 7 5 5 4 3 1 2 2 2 4 5 3 3 2 1 3 4 4 3 6 4 5 6 7 3 2 7 3 6 5 6 5 4 2 3 4 5 5 4 8 6 4 3 4 4 5 6 13 17 12 7 2 4 8 9 7 5 4 8 9 6 6 7 7 7 7 7
19 19 19 19 19 18 18 18 18 11 6 9 10 9 5 6 13 20 15 10 5 2 3 3 4 3 1 6 1 4 3 3 3 5 4 3 3 3 1 2 3 3 5 6 2 4 3 5 4 7 7 4 6 3 3 10 9 6 7 7 7 7 6 1 3 5 10 1 0 11 10 12 12 3 8 11 7 8 9 10 7 6 7 7 6 5 5
20 19 19 18 18 16 18 18 16 14 10 5 3 8 6 4 13 21 13 10 4 2 2 4 4 4 3 3 5 5 5 6 5 8 5 3 3 4 4 4 4 5 4 9 3 4 1 2 7 6 3 1 1 4 7 7 5 11 11 4 6 6 4 5 5 8 1 2 4 2 4 8 11 10 9 10 8 5 6 5 7 8 4 5 4 5 3
21 20 19 19 18 17 18 16 7 5 6 5 3 2 5 9 11 19 16 6 6 3 2 1 2 4 4 3 2 4 2 3 2 4 8 3 4 7 4 3 2 5 4 4 2 5 6 7 4 6 10 5 6 8 4 6 14 13 6 7 4 8 5 6 2 0 2 2 2 5 10 15 16 10 11 10 9 7 8 4 2 7 6 3 5 4 3
20 20 18 19 17 11 5 7 2 4 2 3 3 7 16 9 7 11 10 2 3 5 6 4 6 5 6 7 5 5 3 1 2 1 2 2 3 1 2 4 6 7 2 5 5 5 7 5 4 8 6 7 11 8 12 15 17 16 10 11 14 16 16 18 14 6 3 3 5 6 8 5 10 12 9 8 8 5 6 7 4 2 5 7 5 4 2
20 20 21 16 4 2 3 4 2 4 4 5 7 13 16 10 3 1 4 2 2 1 3 4 6 9 12 8 1 3 4 5 4 3 3 3 5 2 4 3 7 3 3 3 6 10 6 4 7 9 9 14 11 11 12 13 17 12 10 14 15 7 5 5 14 16 11 7 7 4 3 5 5 5 9 9 9 6 7 8 10 9 8 9 6 5 4
20 17 6 3 4 3 1 3 4 5 13 17 13 6 1 3 3 3 1 3 2 4 1 1 3 3 3 4 5 6 5 4 3 6 3 3 3 3 2 3 5 5 8 6 7 6 3 2 5 9 10 7 5 8 11 12 10 9 12 10 11 9 10 15 15 16 14 8 2 2 2 2 4 5 10 10 9 10 7 4 4 2 4 6 6 5 3
16 6 3 3 3 3 5 4 5 18 11 2 1 2 1 1 4 2 3 2 2 6 4 5 6 4 6 8 4 1 6 6 3 3 6 5 4 4 3 4 4 4 5 4 6 10 6 4 5 8 10 7 9 8 6 7 5 5 8 13 15 12 14 16 19 22 21 18 20 20 20 17 15 13 9 7 4 2 4 5 5 4 4 5 4 4 3
6 6 5 4 6 3 3 6 19 12 4 3 1 3 2 2 4 3 2 1 2 2 3 7 6 6 10 12 10 6 2 5 5 5 5 2 1 4 3 1 2 4 7 10 5 8 7 8 5 7 11 10 12 9 9 9 9 5 4 7 11 13 14 18 12 1 3 4 3 9 2 0 5 13 15 13 11 11 7 5 4 5 5 5 4 5 4
6 3 4 4 4 2 2 5 3 3 3 2 2 1 1 2 1 1 3 4 3 3 2 4 5 2 3 3 5 8 3 3 0 2 2 4 2 3 1 3 3 5 5 8 2 5 4 5 6 11 11 10 13 13 9 6 7 6 4 3 8 10 10 7 4 3 8 9 7 7 3 3 5 8 10 13 12 11 10 9 8 6 5 4 5 3 3
6 6 4 4 3 3 2 2 2 2 1 1 3 2 2 2 1 3 0 5 7 2 2 1 4 10 8 11 9 6 4 1 2 1 2 2 2 4 3 2 2 3 4 3 4 1 2 8 10 9 7 12 15 12 12 12 9 10 8 6 8 9 9 9 10 3 2 10 9 7 6 7 8 8 9 11 10 10 10 9 8 6 6 4 3 1 1
14 10 7 4 2 1 1 1 2 2 3 2 2 1 1 1 2 5 3 1 2 3 3 2 1 2 3 3 2 0 4 1 2 1 2 3 0 3 2 2 2 2 4 2 2 1 3 3 6 11 11 16 17 16 17 17 13 9 8 6 6 6 7 10 10 9 5 9 10 10 10 11 10 8 8 12 12 11 6 5 8 7 5 4 3 3 2
4 2 2 0 2 2 2 4 1 3 0 1 6 6 3 1 2 2 2 3 2 1 3 7 4 9 6 3 5 1 1 1 1 1 1 1 3 1 1 4 4 4 4 3 1 2 4 3 6 9 8 1 1 4 8 9 11 10 8 5 4 6 9 9 11 12 9 7 8 8 9 10 10 9 8 7 10 13 10 7 4 5 4 4 3 1 0
4 2 2 2 1 2 3 3 1 3 5 4 3 3 4 7 5 4 8 5 5 7 4 4 7 8 7 3 2 2 2 3 1 4 3 2 1 2 2 3 2 2 2 3 1 2 1 4 6 7 6 6 5 4 4 6 10 15 14 10 8 9 11 12 10 9 9 9 10 10 10 9 10 9 7 7 5 6 9 8 5 5 4 4 2 2 1
5 4 4 4 3 1 2 1 2 1 2 1 4 6 7 7 7 6 5 3 7 6 9 9 9 9 8 3 7 5 3 3 2 2 2 1 3 4 3 1 3 1 2 1 3 7 9 8 9 10 10 9 11 10 8 8 7 6 14 16 13 11 9 9 9 9 10 10 8 9 9 8 9 10 10 7 6 6 6 6 5 6 5 5 3 2 0
1 0 1 0 2 2 1 3 3 3 4 5 6 8 9 10 10 8 3 4 10 11 12 10 11 10 11 5 2 1 0 1 3 3 4 1 3 0 3 2 4 2 6 8 7 4 4 7 7 6 5 6 8 10 12 12 10 10 7 7 12 11 10 10 10 11 10 9 10 9 9 9 8 8 9 9 6 5 4 4 4 5 5 4 3 2 1
5 1 3 3 4 3 5 5 2 1 2 3 3 1 2 0 5 2 6 4 3 4 7 6 3 3 2 3 3 4 3 1 3 3 3 3 2 3 0 1 3 1 2 6 10 5 6 5 7 8 9 12 14 16 13 13 12 12 10 12 12 12 12 12 11 10 11 12 11 10 9 9 9 9 9 10 9 5 5 5 5 5 4 3 3 2 1
2 3 5 4 2 3 2 0 6 9 5 1 1 0 1 7 10 7 2 4 4 10 12 10 5 6 1 2 4 3 3 2 4 5 2 1 3 4 4 5 4 5 4 5 7 6 9 6 0 4 6 7 6 9 9 10 12 13 14 15 15 13 14 12 11 11 10 9 10 11 10 8 9 9 9 9 10 6 6 5 6 5 5 5 4 3 1
4 1 2 4 2 4 1 2 3 8 3 1 1 3 2 3 2 1 5 1 3 1 3 3 2 3 1 3 1 1 2 2 2 0 3 7 4 1 2 5 4 4 3 2 4 8 3 1 4 6 6 9 10 10 11 10 9 9 8 9 10 11 11 13 14 11 10 10 10 11 10 10 9 9 11 11 9 8 7 6 5 5 4 3 4 2 1
2 3 1 1 3 5 6 9 13 12 10 9 5 2 1 4 1 2 4 3 3 3 6 6 4 3 2 1 2 2 4 2 2 4 4 4 2 2 6 10 8 6 6 6 4 1 3 3 1 5 7 6 6 7 7 8 8 8 8 10 10 10 10 11 12 11 12 10 10 11 10 8 7 8 7 9 11 10 8 6 4 4 4 2 2 2 1
3 3 1 1 2 1 2 1 5 2 1 4 4 2 1 2 0 1 2 2 0 8 10 4 4 3 2 4 4 2 1 4 2 2 2 3 2 4 4 8 9 9 8 6 3 2 3 4 2 2 6 8 9 9 9 9 11 10 10 10 10 11 11 10 10 12 12 10 9 8 8 6 7 8 9 10 10 9 9 6 3 2 2 2 2 1 1
Wind_Direction
19 14 5 356 327 325 340 2 6 49 357 58 279 261 66 58 171 360 344 351 49 77 52 8 4 69 236 66 54 31 59 126 210 115 334 71 67 53 61 186 109 266 128 161 150 165 181 169 200 184 199 249 196 213 153 133 159 135 112 68 215 89 101 95 321 319 322 328 329 50 43 89 49 295 103 150 199 186 176 164 180 157 145 122 353 247 254
14 11 15 12 357 321 324 3 26 48 49 137 124 68 117 106 112 110 331 330 48 132 180 187 195 145 10 97 171 30 133 114 70 48 264 126 44 127 155 39 3 152 119 138 174 194 155 236 182 263 197 191 64 166 166 163 168 165 203 175 198 159 260 138 126 25 347 344 345 353 352 57 206 189 204 194 84 78 128 101 71 114 218 165 129 235 276
2 6 8 7 13 3 332 359 41 63 76 104 113 126 172 116 15 19 325 22 147 181 189 116 121 148 146 133 146 178 180 211 175 145 173 73 135 97 47 171 146 63 154 103 83 209 149 162 232 98 187 195 38 7 155 207 176 196 307 77 161 176 174 142 157 177 184 194 193 213 210 200 182 227 149 167 146 133 129 181 109 190 267 152 176 242 253
348 357 3 5 11 13 352 327 11 52 66 43 68 152 66 149 138 277 23 93 68 71 32 145 146 157 155 146 189 142 201 347 328 125 35 156 99 56 121 20 94 93 102 108 150 192 345 94 191 171 205 254 342 258 323 191 200 216 139 145 142 164 140 194 188 194 204 209 196 32 96 85 190 214 150 171 174 178 145 109 118 213 191 177 234 185 178
326 343 355 1 0 15 8 345 332 360 58 80 108 42 111 72 101 158 185 79 273 100 149 151 156 183 170 174 155 185 195 200 24 229 144 237 138 72 53 181 130 222 118 170 164 200 169 20 95 192 156 249 232 336 119 106 7 151 111 164 86 87 188 218 202 222 225 152 168 212 141 163 200 148 186 182 171 180 167 181 219 162 89 257 227 170 176
307 308 328 347 358 358 24 349 332 350 84 43 71 49 10 113 251 66 314 145 174 171 243 158 162 138 166 194 156 188 177 180 202 47 329 108 199 137 315 184 198 163 173 145 148 178 173 143 208 83 6 103 344 68 357 105 327 344 111 252 148 143 198 238 154 248 216 135 178 176 166 180 181 181 175 179 184 173 187 213 221 129 190 234 206 142 211
297 303 320 332 343 347 2 4 348 327 29 73 100 84 306 75 24 187 331 123 307 29 134 134 131 150 173 112 162 173 183 200 194 151 126 100 240 203 211 210 193 161 146 139 167 159 150 245 204 158 159 159 123 104 37 316 16 126 72 141 182 128 240 193 170 218 219 207 187 189 172 188 135 185 191 187 176 192 199 215 219 196 217 231 168 180 213
277 300 305 313 316 328 346 34 7 313 8 64 63 87 111 292 83 321 17 80 81 329 109 136 135 148 196 167 208 177 185 193 140 72 154 175 219 150 231 212 164 160 170 163 164 205 200 164 174 220 135 133 136 188 179 159 5 76 158 161 263 157 258 136 141 187 247 213 136 156 196 175 204 216 195 191 195 204 206 214 222 210 246 258 229 183 263
247 286 296 293 300 308 316 333 82 243 136 36 87 306 109 144 139 124 118 85 310 48 107 138 149 176 174 201 196 164 189 193 168 186 216 196 178 173 216 170 106 161 192 209 229 193 142 105 205 167 158 170 211 134 237 141 152 139 105 94 139 148 240 45 96 169 283 228 168 195 128 189 207 217 190 197 197 211 223 222 211 178 215 232 240 253 254
238 239 267 284 291 294 296 304 129 22 191 94 99 43 298 62 316 88 95 86 352 130 339 110 111 219 208 159 94 159 180 153 139 199 257 212 207 201 168 139 145 173 181 227 227 155 110 104 99 117 92 93 87 62 116 138 147 159 133 133 134 167 142 143 148 168 250 298 138 126 111 84 296 245 217 204 204 205 217 228 225 211 205 215 214 233 241
244 238 230 251 275 279 285 287 279 126 162 173 119 191 133 154 177 22 35 101 329 137 131 172 188 291 96 123 100 47 96 173 175 184 263 112 271 128 148 145 154 167 211 225 92 112 112 100 90 53 68 75 90 86 103 81 84 140 146 106 97 101 125 157 165 166 242 32 131 119 111 205 226 228 211 182 195 201 197 207 216 224 187 212 213 234 88
269 254 248 252 252 270 276 277 282 147 166 230 43 169 191 115 78 74 76 133 218 345 178 202 185 39 139 188 114 144 144 183 197 5 128 260 277 167 161 183 154 211 243 104 103 93 101 76 64 58 49 48 62 59 93 147 356 39 131 127 147 129 118 154 162 127 162 204 116 106 210 232 225 312 166 190 207 187 198 215 218 222 217 237 267 275 213
260 269 263 246 246 254 262 272 275 229 152 141 175 227 199 157 125 129 135 118 190 174 169 267 307 94 23 131 164 156 189 189 48 32 51 109 41 283 198 172 193 195 135 123 127 117 100 105 49 60 26 33 30 49 35 56 269 58 345 127 129 162 136 151 74 128 76 112 174 208 232 221 321 284 301 20 135 169 175 271 276 231 202 205 231 239 235
246 256 264 263 257 248 249 258 260 266 187 161 140 240 104 117 113 93 119 101 254 205 190 137 50 145 94 161 162 154 94 290 293 356 54 340 144 243 298 15 326 291 163 124 101 110 74 64 132 118 183 76 73 239 237 213 209 172 192 246 158 158 99 113 192 193 200 172 204 226 16 335 247 268 226 167 165 158 174 217 242 224 203 193 215 232 237
241 242 250 257 260 258 248 243 249 248 234 157 176 282 254 306 89 129 193 106 188 263 185 200 179 165 138 174 151 130 152 216 213 266 276 355 12 224 205 315 333 284 271 114 125 50 136 137 141 144 178 152 180 216 105 203 5 317 227 204 179 160 180 202 189 227 188 195 225 235 223 242 240 225 284 197 159 166 178 179 256 218 199 199 201 221 223
256 254 251 250 252 255 253 247 243 236 242 170 146 164 252 167 158 50 118 153 127 257 239 184 131 137 155 200 184 156 181 171 196 109 4 304 263 334 315 278 290 127 46 71 91 120 138 141 189 179 204 188 173 99 268 158 182 319 44 161 115 349 181 179 199 223 158 207 216 205 213 233 236 208 190 191 169 148 119 170 246 245 189 192 191 218 219
255 253 253 250 251 250 248 248 244 236 237 198 152 167 238 147 154 175 217 6 170 231 77 141 143 123 103 80 52 32 124 158 156 149 257 258 240 249 301 335 334 80 21 99 177 101 94 115 170 127 333 157 146 202 101 103 143 94 61 118 172 173 177 175 207 209 194 195 217 227 189 249 262 224 245 214 134 118 107 201 246 244 143 181 177 209 210
251 253 250 248 248 251 252 247 241 240 237 222 157 148 217 164 168 144 204 190 192 234 161 170 136 135 182 178 134 222 77 57 51 54 99 236 4 192 256 11 37 316 166 101 219 147 174 171 187 190 198 240 174 118 191 172 176 178 168 173 159 174 146 202 206 204 213 211 240 12 292 281 253 229 205 162 182 126 165 212 231 228 200 198 181 187 157
250 251 251 246 242 243 250 252 245 242 236 229 143 108 242 164 159 145 135 175 208 249 174 190 162 181 192 104 141 173 190 173 161 120 256 33 262 210 153 206 152 153 180 180 109 173 181 226 53 123 165 252 102 195 171 160 200 107 131 134 103 191 163 215 202 213 211 215 229 240 274 230 170 307 145 192 124 204 208 228 233 165 176 163 146 141 154
251 251 248 247 243 239 242 248 251 246 234 227 150 176 197 165 175 170 185 206 213 260 95 202 181 203 184 161 176 124 48 41 221 140 165 177 258 99 69 219 319 102 27 121 198 220 176 206 190 176 182 180 210 166 29 257 93 159 168 186 180 176 176 185 194 197 204 193 230 209 231 246 137 120 79 285 158 230 199 142 25 85 140 138 135 139 159
249 248 247 245 241 239 240 242 247 251 243 231 191 139 230 241 181 191 185 171 82 251 235 231 342 247 180 196 191 175 171 189 186 179 222 175 213 142 157 215 188 150 187 155 193 205 163 227 165 180 215 161 223 77 195 185 242 279 146 189 204 188 189 179 206 181 204 193 210 209 212 145 183 152 192 194 199 187 157 134 91 40 121 134 120 126 158
247 249 249 247 245 242 241 240 241 244 244 237 204 124 205 244 175 188 177 181 219 217 256 355 45 284 286 253 251 209 199 194 212 170 159 200 257 180 198 105 130 151 203 119 65 17 342 209 69 96 184 247 321 206 182 194 233 220 8 118 183 228 197 184 193 185 184 205 201 240 299 177 200 46 53 199 330 37 158 114 133 140 187 181 119 146 148
244 245 246 247 245 243 242 240 239 241 242 237 224 132 197 160 164 168 153 217 214 256 20 335 322 295 287 266 198 193 202 139 328 5 119 151 268 318 216 152 251 254 40 119 184 168 189 123 218 170 360 209 172 198 333 129 195 183 174 238 197 328 181 99 108 249 46 314 149 342 12 356 349 16 359 116 72 41 98 129 115 65 128 165 153 150 147
249 247 246 245 245 245 242 240 238 237 239 238 225 132 188 165 171 121 78 194 198 277 233 197 212 235 226 259 272 177 167 256 210 203 189 169 196 282 338 280 205 45 341 246 196 172 218 123 215 114 197 243 119 170 195 263 233 199 114 308 293 258 143 84 156 267 153 248 145 123 164 30 36 103 36 35 52 60 93 111 108 129 115 94 89 122 126
249 249 248 245 244 243 242 241 239 239 239 239 229 152 152 156 173 160 154 184 174 202 245 197 212 232 231 200 220 246 231 197 105 119 299 234 171 187 203 229 171 175 251 261 99 68 53 149 237 65 187 252 139 235 220 174 270 156 171 249 105 280 191 141 219 175 171 233 315 295 291 241 285 143 138 118 87 65 50 82 105 107 100 99 110 113 101
249 249 247 246 243 240 240 240 240 239 239 235 227 151 177 190 178 149 135 148 70 137 217 249 247 164 91 156 229 223 183 149 169 177 194 204 192 195 190 94 358 35 99 90 70 185 172 55 84 138 170 268 125 172 226 208 177 244 185 214 193 203 122 200 181 169 234 24 345 65 77 49 31 353 30 113 134 117 99 94 104 111 103 91 66 55 86
250 250 249 246 243 240 239 239 237 239 237 236 229 175 172 180 171 172 176 159 132 280 257 259 223 315 192 212 225 169 146 169 190 190 217 209 211 167 112 163 175 70 112 65 32 122 60 100 147 228 182 238 116 181 137 26 133 149 191 259 149 102 185 204 107 96 169 190 200 167 120 219 232 231 196 159 165 120 115 108 90 99 106 110 99 74 65
252 251 250 247 243 241 239 237 238 240 237 236 235 176 168 179 194 190 175 165 178 192 173 221 237 241 125 345 256 205 202 187 169 187 199 216 196 184 177 191 176 164 159 170 272 324 200 204 240 227 41 307 77 262 132 227 69 32 202 238 196 177 192 151 169 173 213 230 200 191 161 111 175 167 167 161 171 134 118 121 122 96 87 113 119 115 81
252 253 250 247 244 239 236 236 231 233 233 232 113 84 93 221 230 213 193 181 173 193 91 216 329 36 131 242 43 48 164 150 176 192 203 216 195 193 203 196 194 176 150 125 133 156 164 227 153 146 181 218 142 269 74 224 193 224 214 216 190 237 184 175 186 180 262 210 183 180 152 172 170 146 149 149 158 125 106 102 95 107 107 102 93 108 131
245 247 247 245 243 240 237 233 229 227 226 153 81 87 130 262 208 198 208 193 167 138 208 220 261 250 266 33 256 234 177 151 162 179 207 211 213 203 210 195 208 189 180 181 175 232 204 221 253 274 280 328 182 222 198 216 209 237 252 241 219 237 214 238 194 163 201 200 147 122 103 79 87 108 98 88 92 133 126 131 129 121 98 102 107 90 65
246 245 245 243 241 240 236 232 227 224 207 135 136 116 190 236 202 192 191 187 169 159 160 165 213 326 14 261 166 226 185 157 170 191 206 209 215 212 208 172 213 179 210 247 197 216 174 233 173 249 237 218 143 166 183 181 237 295 248 206 205 204 203 204 171 197 136 105 88 84 77 102 119 88 52 75 91 118 113 113 98 98 111 100 97 108 105
243 240 243 241 238 237 233 228 226 221 178 171 196 185 180 222 176 160 172 168 143 139 165 132 216 131 230 282 251 215 166 183 145 127 195 164 234 194 214 179 215 191 211 213 221 152 221 156 211 194 176 194 126 125 139 148 190 235 242 222 221 190 136 136 127 102 103 131 111 68 74 115 241 161 175 159 134 103 122 126 118 110 106 107 100 91 89
243 239 237 239 238 235 233 230 224 205 171 205 219 245 286 293 164 160 169 147 125 177 156 152 164 179 184 241 308 336 174 130 162 159 237 174 208 148 204 182 188 217 213 225 222 211 238 204 151 191 225 134 136 170 156 208 212 213 221 210 179 152 150 102 101 126 147 179 97 152 175 188 194 170 110 116 112 121 130 119 134 127 117 111 97 88 68
239 235 232 234 234 232 235 227 220 213 207 177 208 228 224 267 182 165 156 154 143 145 99 133 171 150 226 316 55 272 154 175 193 176 215 174 164 140 197 170 189 198 220 203 205 216 309 60 206 199 128 253 187 163 214 230 218 218 216 186 118 110 113 121 139 148 159 354 350 332 127 107 99 108 102 98 112 74 81 94 126 114 102 101 91 88 90
232 229 226 225 225 225 230 227 207 174 184 203 219 284 162 214 207 167 156 158 138 184 104 257 137 140 186 356 160 270 211 153 203 207 197 217 137 161 194 145 237 198 248 102 173 205 190 212 150 198 219 130 175 212 201 180 214 217 194 101 129 121 97 102 215 279 1 351 29 93 116 129 126 141 152 138 119 142 129 116 126 130 127 132 120 100 90
226 224 222 222 225 228 230 233 169 153 202 198 214 174 173 194 200 179 181 160 134 166 167 199 164 189 158 200 201 257 124 120 216 80 210 140 3 306 127 148 216 209 185 177 206 157 218 151 168 231 139 192 218 187 202 199 207 208 167 169 182 169 181 176 165 139 66 50 82 102 119 135 144 153 144 146 133 139 141 127 111 105 141 149 152 136 106
213 215 212 213 194 80 219 200 173 183 204 144 167 163 159 120 10 118 169 157 285 64 151 166 180 192 180 204 172 271 120 188 172 144 226 161 194 177 124 187 217 184 123 202 194 205 212 150 218 215 193 217 213 205 208 203 214 196 174 197 188 177 103 96 134 131 111 79 77 76 86 117 116 132 142 158 163 152 148 168 173 161 174 176 164 161 180
208 204 180 142 99 174 194 198 200 180 135 134 125 70 105 153 168 191 176 167 198 105 313 70 219 189 90 133 200 239 126 227 135 164 197 206 164 259 195 195 213 210 236 215 220 143 121 172 198 216 230 232 245 220 209 212 213 198 193 174 163 171 152 140 147 135 130 112 83 166 83 99 169 192 170 179 174 179 185 150 125 102 113 133 149 150 153
201 176 126 178 138 186 186 239 171 138 120 78 29 114 158 275 149 175 230 188 138 185 189 173 199 170 163 188 239 319 145 173 120 173 185 224 154 261 160 179 225 202 256 228 243 149 215 198 189 206 230 195 219 232 222 217 216 208 183 176 169 163 158 167 167 157 166 181 184 182 172 176 187 202 199 171 158 109 134 142 138 136 131 133 142 158 155
138 177 171 159 187 199 178 171 144 126 101 116 220 130 195 210 176 233 167 88 341 283 138 195 181 170 186 186 180 238 219 121 154 201 189 251 131 171 234 201 257 206 223 221 217 163 210 212 193 200 219 194 215 206 197 191 192 205 188 173 162 164 169 170 182 309 105 49 93 158 143 123 175 166 168 173 166 161 161 157 153 139 142 153 164 161 174
168 108 123 177 193 171 180 150 76 64 108 72 59 343 115 348 265 213 127 198 198 238 165 164 124 151 199 148 169 204 277 80 180 140 135 183 247 75 40 191 249 226 221 215 209 168 193 216 203 213 211 192 204 208 181 161 182 189 209 164 160 160 164 143 100 117 128 113 104 94 86 94 119 148 161 163 164 163 160 155 153 158 156 164 166 171 176
166 147 162 131 117 99 48 13 103 82 35 152 134 213 197 203 54 20 188 165 203 171 292 124 162 182 195 174 193 165 251 176 137 105 120 256 240 151 231 274 14 148 233 234 108 56 179 208 206 216 189 200 207 191 168 181 187 171 177 169 153 154 151 150 142 91 110 130 121 115 114 112 107 114 132 137 139 141 141 142 149 159 169 185 144 143 148
118 115 108 77 65 28 121 135 289 123 137 156 111 237 201 116 209 162 225 238 307 95 231 80 208 90 343 60 12 129 177 156 133 216 109 201 61 55 153 246 198 233 223 352 52 175 178 201 206 216 196 205 198 182 181 185 173 156 148 148 152 152 154 150 141 129 112 120 129 130 127 115 108 109 112 117 116 112 107 138 154 157 159 159 160 174 174
105 101 79 18 82 287 122 220 187 64 161 165 157 194 154 148 306 67 118 226 217 176 208 135 210 139 200 190 161 130 40 350 134 81 343 309 88 148 192 229 202 248 45 23 291 252 226 226 215 213 230 277 44 155 169 142 142 136 129 134 122 123 122 117 112 115 109 98 105 112 106 107 111 100 94 103 127 133 137 133 144 137 149 134 138 156 228
105 97 93 23 90 203 89 247 100 151 194 209 172 182 166 182 198 174 179 224 131 193 185 158 151 161 180 208 57 309 152 192 167 110 225 148 89 227 153 238 220 53 130 239 238 267 354 267 259 252 252 222 189 151 130 155 169 168 160 136 140 145 147 144 144 130 129 136 137 131 120 123 115 117 111 113 106 118 132 140 154 133 131 123 102 61 328
150 162 143 138 182 235 161 211 121 205 287 139 178 182 167 203 164 196 232 144 166 175 162 181 175 170 176 206 158 191 140 117 90 221 181 113 161 234 215 25 61 118 254 234 219 223 223 223 214 218 215 196 175 177 160 163 142 123 140 164 175 161 157 142 138 137 139 140 136 127 126 126 127 127 127 122 116 114 107 116 126 130 131 105 119 146 118
106 44 104 87 191 228 87 181 217 206 164 172 194 170 181 186 194 187 185 169 181 189 182 181 171 181 170 190 128 345 50 152 153 222 91 102 193 248 32 120 227 185 220 231 223 227 250 248 236 215 183 167 169 168 168 163 164 168 166 128 147 156 153 146 147 144 147 136 129 126 127 129 124 122 119 111 104 109 120 115 118 127 129 149 149 123 90
173 162 114 171 206 152 170 229 167 79 315 177 236 277 287 349 107 226 231 202 234 130 142 118 101 47 7 308 70 177 181 192 170 250 153 201 42 40 20 232 243 230 185 215 235 201 232 238 226 206 194 182 172 166 168 168 169 171 158 155 158 155 157 152 147 148 146 143 137 132 129 129 132 133 130 129 122 120 122 124 119 122 117 109 108 116 140
95 148 181 205 189 169 211 334 121 194 221 307 275 34 181 153 200 189 85 348 171 179 179 157 177 110 200 159 154 173 216 233 162 216 80 36 150 204 185 214 198 226 251 187 220 210 217 214 295 133 144 151 178 175 171 169 166 164 163 163 166 159 133 144 148 144 139 130 131 130 131 133 131 129 128 124 123 128 127 121 115 116 134 136 140 139 126
85 33 12 80 98 331 286 66 107 233 236 290 114 209 208 234 209 59 324 334 315 17 100 36 58 105 200 114 89 207 219 156 188 190 139 199 203 214 195 218 214 194 217 234 248 245 245 326 144 146 170 166 164 168 164 166 166 157 148 141 136 140 148 140 132 138 135 132 128 128 131 132 139 146 145 142 134 128 118 109 110 116 114 135 134 135 140
346 90 151 308 188 205 134 178 193 206 207 214 179 218 125 170 143 156 9 56 321 169 150 171 175 132 111 97 169 167 244 177 118 196 163 200 151 134 217 229 221 199 216 212 208 343 356 298 207 158 159 169 167 152 147 145 142 137 134 131 133 131 132 137 133 127 118 116 121 126 133 144 149 138 128 121 121 119 110 100 98 109 121 128 143 141 126
62 109 191 80 100 75 355 324 33 81 153 177 148 216 127 173 246 255 298 65 54 176 187 178 119 150 133 181 202 179 43 47 192 153 187 259 158 166 215 205 224 223 211 213 269 351 342 346 308 200 166 154 141 136 125 125 117 120 129 133 132 132 133 132 128 120 120 121 123 127 128 132 131 129 128 125 124 121 122 128 123 100 101 120 146 180 189